Погода в Комсомольце

Россия / Волгоградская область     49°57′25″N   45°38′27″E
темп.,
°C
ветер,
м/с
пор.,
м/с
влажн.,
%
обл.,
%
осадки,
мм/ч
давл.,
гПа
погр.,
м
17 августа, ср
ср1700:00+27св51225100 0.0 1015305
03:00+26св7132688 0.0 1014417
06:00+25всв71326100 0.0 1014394
09:00+30в81019100 0.0 1014724
12:00+35в10111459 0.0 10121694
15:00+37в10111445 0.0 10102344
18:00+35всв11151650 0.0 10091299
21:00+29всв112020100 0.0 1010673
18 августа, чт
чт1800:00+28в10192277 0.0 1010677
03:00+26в9172787 0.2 1010472
06:00+25в81532100 0.5 1010441
09:00+31вюв81024100 1.1 10101349
12:00+34ююв81022100 0.1 10102100
15:00+31сз2235100 0.8 1011490
18:00+30св71133100 0.0 1011543
21:00+28всв51232100 0.0 1011341
19 августа, пт
пт1900:00+28в111628100 0.0 1012838
03:00+26всв10153286 0.0 1013997
06:00+22всв101861100 0.0 1015873
09:00+24в111649100 0.0 1016992
12:00+29в131634100 0.0 10161607
15:00+30в131532100 0.0 10171977
18:00+26в121843100 0.0 10181265
21:00+24вюв91642100 0.0 1020785
20 августа, сб
сб2000:00+24в91542100 0.0 1020517
03:00+24в91430100 0.0 1021459
06:00+23в51018100 0.0 1023531
09:00+24в71019100 0.0 1024647
12:00+29в7916100 0.0 10231699
15:00+30в7815100 0.0 10232366
18:00+28в6915100 0.0 1023767
21:00+24в61316100 0.0 1024351
21 августа, вс
вс2100:00+23в5131893 0.0 1024341
03:00+19в4102585 0.0 1024189
06:00+19в4102789 0.0 1024221
09:00+26вюв7919100 0.0 10241161
12:00+30вюв781695 0.0 10232289
15:00+31в7816100 0.0 10212569
18:00+29в691695 0.0 1021651
21:00+23вюв492290 0.0 1021131